This demonstration page uses our WeatherBlox Daily Observations layout. Learn more.

Left ArrowRight Arrow

39.12711, -84.51439

Hourly Observations for January 25, 2022

Temp ( °F °C ) Dew Point ( °F °C ) Humidity (%) Winds ( mph kmh ) Pressure ( in mb ) Visibility ( mi km ) Precip ( " mm )
12:11 am 00:11 Cloudy 33 0.6 29 -1.7 85 85 WNW 9 15 29.93 1013 10 16 0.00 0.00
12:53 am 00:53 Cloudy 32 0 28 -2.2 85 85 NNW 9 15 29.93 1013 10 16 0.00 0.00
1:53 am 01:53 Cloudy 31 -0.6 24 -4.4 76 76 NW 12 19 29.94 1014 10 16 0.00 0.00
2:53 am 02:53 Cloudy 29 -1.7 22 -5.6 75 75 N 12 19 29.98 1015 10 16 0.00 0.00
3:53 am 03:53 Cloudy 28 -2.2 21 -6.1 75 75 NNW 13 20 30.00 1016 10 16 0.00 0.00
4:53 am 04:53 Cloudy 28 -2.2 21 -6.1 75 75 NNW 9 15 30.04 1017 10 16 0.00 0.00
5:53 am 05:53 Cloudy 27 -2.8 17 -8.3 66 66 NW 8 13 30.08 1019 10 16 0.00 0.00
6:27 am 06:27 Cloudy 27 -2.8 16 -8.9 63 63 N 12 19 30.11 1020 10 16 0.00 0.00
6:53 am 06:53 Cloudy 26 -3.3 17 -8.3 69 69 N 10 17 30.11 1020 10 16 0.00 0.00
7:53 am 07:53 Mostly Cloudy 25 -3.9 15 -9.4 66 66 N 8 13 30.15 1021 10 16 0.00 0.00
8:53 am 08:53 Sunny 24 -4.4 14 -10 65 65 NNW 9 15 30.19 1022 10 16 0.00 0.00
9:53 am 09:53 Sunny 25 -3.9 16 -8.9 69 69 N 8 13 30.21 1023 10 16 0.00 0.00
10:53 am 10:53 Mostly Sunny 27 -2.8 16 -8.9 63 63 NE 3 6 30.23 1024 10 16 0.00 0.00
11:53 am 11:53 Mostly Cloudy 28 -2.2 15 -9.4 58 58 NNE 10 17 30.24 1024 10 16 0.00 0.00
12:53 pm 12:53 Mostly Cloudy 28 -2.2 15 -9.4 58 58 NW 8 13 30.23 1024 10 16 0.00 0.00
1:53 pm 13:53 Cloudy 29 -1.7 15 -9.4 56 56 NW 3 6 30.23 1024 10 16 0.00 0.00
2:53 pm 14:53 Mostly Cloudy 29 -1.7 13 -10.6 51 51 N 5 7 30.23 1024 10 16 0.00 0.00
3:53 pm 15:53 Mostly Cloudy 31 -0.6 13 -10.6 47 47 VRB 3 6 30.25 1024 10 16 0.00 0.00
4:53 pm 16:53 Mostly Cloudy 30 -1.1 12 -11.1 47 47 W 6 9 30.27 1025 10 16 0.00 0.00
5:53 pm 17:53 Mostly Cloudy 27 -2.8 13 -10.6 55 55 N 7 11 30.28 1026 10 16 0.00 0.00
6:53 pm 18:53 Mostly Cloudy 27 -2.8 12 -11.1 53 53 NNW 5 7 30.30 1026 10 16 0.00 0.00
7:53 pm 19:53 Clear 25 -3.9 11 -11.7 55 55 WNW 6 9 30.32 1027 10 16 0.00 0.00
8:53 pm 20:53 Clear 23 -5 12 -11.1 63 63 N 7 11 30.34 1027 10 16 0.00 0.00
9:53 pm 21:53 Clear 21 -6.1 8 -13.3 57 57 NNW 12 19 30.37 1029 10 16 0.00 0.00
10:53 pm 22:53 Clear 19 -7.2 5 -15 54 54 NNW 7 11 30.40 1029 10 16 0.00 0.00
11:53 pm 23:53 Clear 17 -8.3 3 -16.1 54 54 N 6 9 30.40 1030 10 16 0.00 0.00

Powered by AerisWeather